Wolf Point, MT

7:52 PM MST on February 13, 2016 (GMT -0700)
Clayton

Weather History for KOLF - March, 2013

Change the Weather History Date:

Friday, March 22, 2013

  Actual Average Record
Temperature  
Mean Temperature 20 °F -  
Max Temperature 24 °F 47 °F 77 °F (2012)
Min Temperature 16 °F 20 °F -23 °F (2002)
Degree Days  
Heating Degree Days 45    
Cooling Degree Days 0    
Moisture  
Dew Point 15 °F    
Average Humidity 80    
Maximum Humidity 93    
Minimum Humidity 71    
Precipitation  
Precipitation 0.03 in 0.01 in 0.20 in (2011)
Month to date precipitation 0.49 0.28  
Year to date precipitation 0.69 0.80  
Sea Level Pressure  
Sea Level Pressure 30.00 in    
Wind  
Wind Speed 10 mph (NNW)    
Max Wind Speed 20 mph    
Max Gust Speed -    
Visibility 2 miles    
Events Fog , Snow    
T = Trace of Precipitation, MM = Missing Value Source: NWS Daily Summary

Daily Weather History Graph

Daily Weather History Graph

Search for Another Location

Airport or City:

Trip Planner

Search our weather history database for the weather conditions in past years. The results will help you decide how hot, cold, wet, or windy it might be!

Date:

Astronomy

Mar. 22, 2013 Rise Set
Actual Time 7:00 AM MDT 7:18 PM MDT
Civil Twilight 6:29 AM MDT 7:49 PM MDT
Nautical Twilight 5:52 AM MDT 8:26 PM MDT
Astronomical Twilight 5:14 AM MDT 9:04 PM MDT
Moon 2:30 PM MDT (3/22) 4:21 AM MDT (3/22)
Length of Visible Light 13h 20m
Length of Day
12h 18m
Waxing Gibbous, 78% of the Moon is Illuminated
Mar 22
Waxing Gibbous
Mar 27
Full
Apr 2
Last Quarter
Apr 10
New
Apr 18
First Quarter

Hourly Weather History & Observations

Time (MDT) Temp. Windchill Dew Point Humidity Pressure Visibility Wind Dir Wind Speed Gust Speed Precip Events Conditions
12:07 AM 24.8 °F 16.9 °F 21.2 °F 86% 29.88 in 1.2 mi ENE 6.9 mph - 0.00 in Snow Light Snow
12:18 AM 24.8 °F 16.9 °F 21.2 °F 86% 29.88 in 1.0 mi ENE 6.9 mph - 0.00 in Snow Light Snow
12:32 AM 24.8 °F 17.9 °F 21.2 °F 86% 29.88 in 1.2 mi ENE 5.8 mph - 0.01 in Snow Light Snow
12:53 AM 24.1 °F 17.0 °F 21.9 °F 91% 29.96 in 1.2 mi East 5.8 mph - 0.01 in Snow Light Snow
1:05 AM 24.8 °F 16.9 °F 21.2 °F 86% 29.88 in 1.5 mi East 6.9 mph - 0.00 in Snow Light Snow
1:48 AM 24.8 °F 15.3 °F 21.2 °F 86% 29.87 in 1.2 mi East 9.2 mph - 0.00 in Snow Light Snow
1:53 AM 24.1 °F 14.4 °F 21.0 °F 88% 29.96 in 1.0 mi East 9.2 mph - 0.00 in Snow Light Snow
2:17 AM 23.0 °F 13.9 °F 19.4 °F 86% 29.87 in 0.5 mi ENE 8.1 mph - 0.01 in Fog , Snow Snow
2:34 AM 21.2 °F 11.7 °F 19.4 °F 93% 29.87 in 1.0 mi ENE 8.1 mph - 0.01 in Snow Light Snow
2:50 AM 21.2 °F 11.7 °F 19.4 °F 93% 29.87 in 1.2 mi ENE 8.1 mph - 0.01 in Snow Light Snow
2:53 AM 21.9 °F 11.0 °F 19.0 °F 89% 29.96 in 1.2 mi ENE 10.4 mph - 0.01 in Snow Light Snow
3:53 AM 21.0 °F 10.6 °F 18.0 °F 88% 29.96 in 1.5 mi ENE 9.2 mph - 0.01 in Snow Light Snow
4:26 AM 21.2 °F 10.9 °F 17.6 °F 86% 29.87 in 1.0 mi ENE 9.2 mph - 0.00 in Snow Light Snow
4:39 AM 21.2 °F 10.9 °F 17.6 °F 86% 29.87 in 1.5 mi ENE 9.2 mph - 0.00 in Snow Light Snow
4:50 AM 21.2 °F 11.7 °F 17.6 °F 86% 29.87 in 2.5 mi NE 8.1 mph - 0.00 in Snow Light Snow
4:53 AM 21.0 °F 11.4 °F 17.1 °F 85% 29.96 in 2.5 mi ENE 8.1 mph - 0.00 in Snow Light Snow
5:11 AM 21.2 °F 13.6 °F 17.6 °F 86% 29.88 in 3.0 mi ENE 5.8 mph - 0.00 in Snow Light Snow
5:18 AM 21.2 °F 13.6 °F 17.6 °F 86% 29.88 in 3.0 mi NE 5.8 mph - 0.00 in Snow Light Snow
5:53 AM 21.0 °F 16.2 °F 17.1 °F 85% 29.98 in 5.0 mi NNE 3.5 mph - 0.00 in   Overcast
6:40 AM 21.2 °F 13.6 °F 17.6 °F 86% 29.89 in 1.8 mi North 5.8 mph - 0.00 in Snow Light Snow
6:53 AM 21.0 °F 13.4 °F 17.1 °F 85% 29.98 in 1.8 mi North 5.8 mph - 0.00 in Snow Light Snow
7:02 AM 21.2 °F 13.6 °F 17.6 °F 86% 29.89 in 2.5 mi North 5.8 mph - 0.00 in Snow Light Snow
7:12 AM 21.2 °F 13.6 °F 17.6 °F 86% 29.89 in 1.2 mi NW 5.8 mph - 0.00 in Snow Light Snow
7:17 AM 21.2 °F 13.6 °F 17.6 °F 86% 29.90 in 0.8 mi NW 5.8 mph - 0.00 in Snow Light Snow
7:53 AM 21.0 °F 12.4 °F 18.0 °F 88% 30.00 in 0.8 mi WNW 6.9 mph - 0.00 in Snow Light Snow
8:53 AM 21.9 °F 10.4 °F 18.0 °F 85% 30.01 in 0.8 mi North 11.5 mph - 0.00 in Snow Light Snow
9:53 AM 21.9 °F 8.7 °F 16.0 °F 78% 30.02 in 1.0 mi NNW 15.0 mph - 0.00 in Snow Light Snow
10:28 AM 21.2 °F 7.8 °F 15.8 °F 80% 29.93 in 0.8 mi North 15.0 mph - 0.00 in Snow Light Snow
10:35 AM 21.2 °F 9.5 °F 15.8 °F 80% 29.93 in 1.0 mi North 11.5 mph - 0.00 in Snow Light Snow
10:42 AM 21.2 °F 10.9 °F 15.8 °F 80% 29.94 in 1.2 mi NNW 9.2 mph - 0.00 in Snow Light Snow
10:53 AM 21.0 °F 9.9 °F 15.1 °F 78% 30.05 in 1.5 mi NNW 10.4 mph - 0.00 in Snow Light Snow
11:05 AM 21.2 °F 8.9 °F 15.8 °F 80% 29.95 in 0.8 mi NW 12.7 mph - 0.00 in Snow Light Snow
11:45 AM 21.2 °F 8.3 °F 15.8 °F 80% 29.96 in 1.2 mi NNW 13.8 mph - 0.00 in Snow Light Snow
11:53 AM 21.0 °F 8.6 °F 15.1 °F 78% 30.06 in 1.2 mi NNW 12.7 mph - 0.00 in Snow Light Snow
12:05 PM 19.4 °F 5.5 °F 15.8 °F 86% 29.97 in 1.0 mi NW 15.0 mph - 0.01 in Snow Light Snow
12:20 PM 19.4 °F 5.0 °F 14.0 °F 80% 29.97 in 2.0 mi NW 16.1 mph - 0.01 in Snow Light Snow
12:25 PM 19.4 °F 6.0 °F 12.2 °F 74% 29.97 in 3.0 mi NW 13.8 mph - 0.01 in Snow Light Snow
12:29 PM 19.4 °F 5.5 °F 14.0 °F 80% 29.97 in 3.0 mi NW 15.0 mph - 0.01 in Snow Light Snow
12:41 PM 19.4 °F 5.5 °F 12.2 °F 74% 29.98 in 2.5 mi NNW 15.0 mph - 0.01 in Snow Light Snow
12:53 PM 19.9 °F 7.3 °F 12.9 °F 74% 30.08 in 2.5 mi NNW 12.7 mph - 0.01 in Snow Light Snow
1:02 PM 19.4 °F 5.5 °F 14.0 °F 80% 29.98 in 1.2 mi NW 15.0 mph - 0.00 in Snow Light Snow
1:09 PM 19.4 °F 5.0 °F 14.0 °F 80% 29.98 in 1.0 mi NW 16.1 mph - 0.00 in Snow Light Snow
1:17 PM 19.4 °F 4.5 °F 12.2 °F 74% 29.99 in 1.2 mi NW 17.3 mph - 0.00 in Snow Light Snow
1:53 PM 19.9 °F 5.2 °F 14.0 °F 78% 30.09 in 1.8 mi NW 17.3 mph - 0.00 in Snow Light Snow
2:05 PM 19.4 °F 3.6 °F 12.2 °F 74% 29.99 in 2.0 mi NW 19.6 mph - 0.00 in Snow Light Snow
2:23 PM 19.4 °F 4.1 °F 12.2 °F 74% 30.00 in 4.0 mi NW 18.4 mph - 0.00 in Snow Light Snow
2:40 PM 21.2 °F 7.3 °F 14.0 °F 74% 30.00 in 2.0 mi NW 16.1 mph - 0.00 in Snow Light Snow
2:48 PM 19.4 °F 4.1 °F 12.2 °F 74% 30.00 in 1.5 mi NW 18.4 mph - 0.00 in Snow Light Snow
2:53 PM 19.9 °F 5.7 °F 12.9 °F 74% 30.10 in 1.5 mi NW 16.1 mph - 0.00 in Snow Light Snow
3:04 PM 19.4 °F 5.0 °F 12.2 °F 74% 30.00 in 2.0 mi NW 16.1 mph - 0.00 in Snow Light Snow
3:18 PM 19.4 °F 5.0 °F 12.2 °F 74% 30.01 in 1.8 mi NW 16.1 mph - 0.00 in Snow Light Snow
3:53 PM 19.9 °F 6.7 °F 14.0 °F 78% 30.12 in 1.8 mi NW 13.8 mph - 0.00 in Snow Light Snow
4:00 PM 19.4 °F 6.0 °F 12.2 °F 74% 30.02 in 2.5 mi NW 13.8 mph - 0.00 in Snow Light Snow
4:08 PM 19.4 °F 4.5 °F 12.2 °F 74% 30.03 in 3.0 mi NW 17.3 mph - 0.00 in Snow Light Snow
4:16 PM 19.4 °F 5.0 °F 12.2 °F 74% 30.03 in 2.5 mi NW 16.1 mph - 0.00 in Snow Light Snow
4:23 PM 19.4 °F 6.0 °F 12.2 °F 74% 30.03 in 3.0 mi NW 13.8 mph - 0.00 in Snow Light Snow
4:53 PM 19.9 °F 6.7 °F 12.9 °F 74% 30.14 in 6.0 mi NW 13.8 mph - 0.00 in   Haze
5:09 PM 19.4 °F 6.6 °F 14.0 °F 80% 30.04 in 2.0 mi NW 12.7 mph - 0.00 in Snow Light Snow
5:22 PM 19.4 °F 6.6 °F 14.0 °F 80% 30.05 in 3.0 mi WNW 12.7 mph - 0.00 in   Haze
5:53 PM 19.9 °F 7.9 °F 12.0 °F 71% 30.16 in 5.0 mi NW 11.5 mph - 0.00 in   Haze
6:11 PM 19.4 °F 7.2 °F 12.2 °F 74% 30.06 in 2.5 mi NW 11.5 mph - 0.00 in Snow Light Snow
6:22 PM 19.4 °F 7.9 °F 12.2 °F 74% 30.06 in 4.0 mi NW 10.4 mph - 0.00 in   Haze
6:40 PM 19.4 °F 7.2 °F 12.2 °F 74% 30.07 in 2.5 mi NW 11.5 mph - 0.00 in Snow Light Snow
6:53 PM 19.0 °F 5.6 °F 12.0 °F 74% 30.17 in 5.0 mi NW 13.8 mph - 0.00 in   Haze
7:53 PM 18.0 °F 4.8 °F 10.0 °F 71% 30.19 in 10.0 mi WNW 12.7 mph - N/A   Overcast
8:53 PM 18.0 °F 6.9 °F 10.9 °F 74% 30.20 in 10.0 mi West 9.2 mph - N/A   Overcast
9:53 PM 17.1 °F 5.8 °F 10.0 °F 74% 30.21 in 10.0 mi West 9.2 mph - N/A   Mostly Cloudy
10:53 PM 17.1 °F 3.0 °F 10.0 °F 74% 30.22 in 10.0 mi WNW 13.8 mph - N/A   Scattered Clouds
11:53 PM 17.1 °F 2.5 °F 10.9 °F 77% 30.23 in 8.0 mi WNW 15.0 mph - N/A   Overcast